, AK

(GMT )
Golovin

Weather History for PAGL - December, 2012

Change the Weather History Date:

Sunday, December 30, 2012

  Actual Average Record
Temperature  
Mean Temperature 29 °F -  
Max Temperature 35 °F - - ()
Min Temperature 21 °F - - ()
Degree Days  
Heating Degree Days 36    
Moisture  
Dew Point 20 °F    
Average Humidity 71    
Maximum Humidity 93    
Minimum Humidity 55    
Precipitation  
Precipitation 0.07 in - - ()
Sea Level Pressure  
Sea Level Pressure 29.06 in    
Wind  
Wind Speed 13 mph (North)    
Max Wind Speed 33 mph    
Max Gust Speed 46 mph    
Visibility 10 miles    
Events      
T = Trace of Precipitation, MM = Missing Value Source: NWS Daily Summary

Daily Weather History Graph

Daily Weather History Graph

Search for Another Location

Airport or City:

Trip Planner

Search our weather history database for the weather conditions in past years. The results will help you decide how hot, cold, wet, or windy it might be!

Date:

Astronomy

Dec. 30, 2012 Rise Set
Actual Time 11:51 AM AKST 3:58 PM AKST
Civil Twilight 10:31 AM AKST 5:18 PM AKST
Nautical Twilight 9:21 AM AKST 6:28 PM AKST
Astronomical Twilight 8:21 AM AKST 7:29 PM AKST
Moon 8:07 PM AKST (12/30) 11:48 AM AKST (12/30)
Length of Visible Light 6h 47m
Length of Day
4h 06m
Waning Gibbous, 94% of the Moon is Illuminated
Dec 30
Waning Gibbous
Jan 4
Last Quarter
Jan 11
New
Jan 18
First Quarter
Jan 26
Full

Hourly Weather History & Observations

Time (AKST) Temp. Windchill Dew Point Humidity Pressure Visibility Wind Dir Wind Speed Gust Speed Precip Events Conditions
12:16 AM 28.4 °F 17.0 °F 23.0 °F 80% 29.26 in 10.0 mi ENE 15.0 mph - N/A   Clear
12:36 AM 26.6 °F 17.5 °F 23.0 °F 86% 29.26 in 10.0 mi ENE 9.2 mph - N/A   Clear
12:56 AM 26.6 °F 16.2 °F 23.0 °F 86% 29.25 in 10.0 mi East 11.5 mph - N/A   Clear
1:36 AM 26.6 °F 12.4 °F 24.8 °F 93% 29.21 in 10.0 mi ENE 21.9 mph 26.5 mph N/A   Clear
2:16 AM 26.6 °F 14.3 °F 21.2 °F 80% 29.22 in 10.0 mi North 16.1 mph 20.7 mph N/A   Clear
2:36 AM 28.4 °F 18.5 °F 23.0 °F 80% 29.22 in 10.0 mi North 11.5 mph 24.2 mph N/A   Clear
3:16 AM 28.4 °F 15.1 °F 24.8 °F 86% 29.20 in 10.0 mi North 20.7 mph 26.5 mph N/A   Clear
3:36 AM 28.4 °F 15.1 °F 23.0 °F 80% 29.19 in 10.0 mi NNE 20.7 mph 28.8 mph N/A   Clear
3:56 AM 28.4 °F 18.0 °F 24.8 °F 86% 29.19 in 10.0 mi North 12.7 mph 19.6 mph N/A   Clear
4:16 AM 26.6 °F 17.5 °F 21.2 °F 80% 29.18 in 10.0 mi North 9.2 mph - N/A   Clear
4:36 AM 28.4 °F 16.6 °F 26.6 °F 93% 29.17 in 10.0 mi NNE 16.1 mph 19.6 mph N/A   Clear
4:56 AM 24.8 °F 14.6 °F 17.6 °F 74% 29.16 in 10.0 mi NW 10.4 mph - N/A   Clear
5:16 AM 26.6 °F 17.5 °F 21.2 °F 80% 29.15 in 10.0 mi NW 9.2 mph - N/A   Clear
5:36 AM 26.6 °F - 21.2 °F 80% 29.16 in 10.0 mi Calm Calm - N/A   Clear
5:56 AM 30.2 °F 26.7 °F 21.2 °F 69% 29.15 in 10.0 mi SW 3.5 mph - N/A   Clear
6:16 AM 24.8 °F 15.3 °F 21.2 °F 86% 29.14 in 10.0 mi NW 9.2 mph - N/A   Clear
6:36 AM 23.0 °F 12.4 °F 19.4 °F 86% 29.13 in 10.0 mi NW 10.4 mph - N/A   Clear
6:56 AM 24.8 °F 17.9 °F 21.2 °F 86% 29.12 in 10.0 mi NNW 5.8 mph - N/A   Clear
7:16 AM 24.8 °F 16.1 °F 21.2 °F 86% 29.11 in 10.0 mi West 8.1 mph - N/A   Clear
7:36 AM 26.6 °F 21.2 °F 21.2 °F 80% 29.10 in 10.0 mi North 4.6 mph - N/A   Clear
7:56 AM 26.6 °F 19.1 °F 21.2 °F 80% 29.09 in 10.0 mi WNW 6.9 mph - N/A   Clear
8:16 AM 26.6 °F 17.5 °F 19.4 °F 74% 29.07 in 10.0 mi WNW 9.2 mph - N/A   Clear
8:36 AM 26.6 °F 19.1 °F 19.4 °F 74% 29.07 in 10.0 mi WNW 6.9 mph - N/A   Clear
8:56 AM 32.0 °F 21.2 °F 19.4 °F 60% 29.06 in 10.0 mi NNE 16.1 mph 19.6 mph N/A   Clear
9:16 AM 30.2 °F 19.3 °F 21.2 °F 69% 29.06 in 10.0 mi NNE 15.0 mph - N/A   Clear
9:36 AM 32.0 °F 28.7 °F 21.2 °F 64% 29.06 in 10.0 mi NNW 3.5 mph 16.1 mph N/A   Clear
9:56 AM 30.2 °F 25.4 °F 21.2 °F 69% 29.07 in 10.0 mi North 4.6 mph - N/A   Clear
10:16 AM 30.2 °F 21.9 °F 21.2 °F 69% 29.07 in 10.0 mi North 9.2 mph 16.1 mph N/A   Clear
10:56 AM 30.2 °F 15.2 °F 21.2 °F 69% 29.00 in 10.0 mi ENE 29.9 mph 38.0 mph N/A   Clear
11:16 AM 30.2 °F 14.9 °F 21.2 °F 69% 28.99 in 10.0 mi NE 31.1 mph 39.1 mph N/A   Clear
11:36 AM 32.0 °F 18.1 °F 21.2 °F 64% 28.97 in 10.0 mi NE 27.6 mph 36.8 mph N/A   Clear
11:56 AM 33.8 °F 22.5 °F 23.0 °F 65% 28.97 in 10.0 mi North 19.6 mph 33.4 mph N/A   Clear
12:16 PM 35.6 °F 21.9 °F 23.0 °F 60% 28.96 in 10.0 mi NE 33.4 mph 46.0 mph 0.07 in   Clear
12:36 PM 33.8 °F 20.8 °F 21.2 °F 60% 28.98 in 10.0 mi NNE 26.5 mph 38.0 mph 0.07 in   Clear
12:56 PM 32.0 °F 18.1 °F 23.0 °F 69% 28.96 in 10.0 mi NNE 27.6 mph 33.4 mph 0.07 in   Clear
1:16 PM 33.8 °F 21.9 °F 21.2 °F 60% 28.95 in 10.0 mi North 21.9 mph 38.0 mph N/A   Clear
1:36 PM 33.8 °F 21.6 °F 24.8 °F 70% 28.95 in 10.0 mi NNE 23.0 mph 35.7 mph N/A   Clear
2:16 PM 32.0 °F 21.6 °F 19.4 °F 60% 28.96 in 10.0 mi North 15.0 mph 33.4 mph N/A   Clear
2:56 PM 30.2 °F 18.9 °F 19.4 °F 64% 28.95 in 10.0 mi NNW 16.1 mph 21.9 mph N/A   Clear
3:16 PM 32.0 °F 21.2 °F 19.4 °F 60% 28.97 in 10.0 mi North 16.1 mph 21.9 mph N/A   Clear
3:36 PM 30.2 °F 18.5 °F 17.6 °F 60% 28.98 in 10.0 mi NE 17.3 mph 25.3 mph N/A   Clear
3:56 PM 30.2 °F 18.1 °F 17.6 °F 60% 28.98 in 10.0 mi NNE 18.4 mph 35.7 mph N/A   Clear
4:16 PM 28.4 °F 18.5 °F 17.6 °F 64% 28.99 in 10.0 mi NE 11.5 mph 24.2 mph N/A   Clear
4:36 PM 30.2 °F 16.8 °F 17.6 °F 60% 28.98 in 10.0 mi NE 23.0 mph 29.9 mph N/A   Clear
4:56 PM 30.2 °F 15.9 °F 17.6 °F 60% 28.98 in 10.0 mi NNE 26.5 mph 34.5 mph N/A   Clear
5:16 PM 30.2 °F 18.1 °F 17.6 °F 60% 29.00 in 10.0 mi NNE 18.4 mph 31.1 mph N/A   Clear
5:36 PM 30.2 °F 16.2 °F 15.8 °F 55% 28.97 in 10.0 mi ENE 25.3 mph 31.1 mph N/A   Clear
5:56 PM 28.4 °F 18.0 °F 15.8 °F 59% 28.99 in 10.0 mi NNE 12.7 mph 24.2 mph N/A   Clear
6:16 PM 28.4 °F 17.0 °F 17.6 °F 64% 28.98 in 10.0 mi North 15.0 mph 24.2 mph N/A   Clear
6:36 PM 28.4 °F 19.1 °F 17.6 °F 64% 28.99 in 10.0 mi North 10.4 mph 18.4 mph N/A   Clear
6:56 PM 28.4 °F 22.2 °F 17.6 °F 64% 28.99 in 10.0 mi ENE 5.8 mph - N/A   Clear
7:16 PM 28.4 °F 19.1 °F 17.6 °F 64% 28.99 in 10.0 mi NW 10.4 mph - N/A   Clear
7:36 PM 26.6 °F - 17.6 °F 69% 29.00 in 10.0 mi Calm Calm - N/A   Clear
7:56 PM 30.2 °F - 17.6 °F 60% 29.00 in 10.0 mi Calm Calm - N/A   Clear
8:16 PM 28.4 °F 20.4 °F 17.6 °F 64% 29.01 in 10.0 mi North 8.1 mph - N/A   Clear
8:36 PM 28.4 °F - 19.4 °F 69% 29.01 in 10.0 mi Calm Calm - N/A   Clear
8:56 PM 28.4 °F - 17.6 °F 64% 29.02 in 10.0 mi Calm Calm - N/A   Clear
9:16 PM 28.4 °F 22.2 °F 17.6 °F 64% 29.03 in 10.0 mi WNW 5.8 mph - N/A   Clear
9:36 PM 26.6 °F 16.2 °F 15.8 °F 64% 29.03 in 10.0 mi North 11.5 mph 17.3 mph N/A   Clear
9:56 PM 26.6 °F 18.2 °F 15.8 °F 64% 29.04 in 10.0 mi North 8.1 mph - N/A   Clear
10:16 PM 26.6 °F 20.0 °F 17.6 °F 69% 29.05 in 10.0 mi North 5.8 mph - N/A   Partly Cloudy
10:36 PM 26.6 °F 15.7 °F 17.6 °F 69% 29.05 in 10.0 mi NNE 12.7 mph - N/A   Mostly Cloudy
10:56 PM 26.6 °F 16.2 °F 17.6 °F 69% 29.06 in 10.0 mi NNE 11.5 mph - N/A   Partly Cloudy
11:16 PM 26.6 °F 16.2 °F 17.6 °F 69% 29.06 in 10.0 mi North 11.5 mph - N/A   Clear
11:36 PM 26.6 °F 18.2 °F 15.8 °F 64% 29.07 in 10.0 mi North 8.1 mph 19.6 mph N/A   Partly Cloudy
11:56 PM 21.2 °F 12.6 °F 17.6 °F 86% 29.08 in 10.0 mi NNW 6.9 mph - N/A   Mostly Cloudy